[[{"header":{"parameterUnit":"m.s-1","parameterCategory":2,"la1":30.2991,"la2":30.254,"lo1":-89.0895,"lo2":-89.0444,"dy":0.0017,"dx":0.0017,"nx":28,"ny":28,"refTime":"2025-12-18T03:00:00:Z","depth":"0","parameterNumber":2,"parameterNumberName":"U-component_of_CURRENTS"},"data":[0,0,0,0,0,0,0,0,0,0,0,0,0,0,0,0,0,0,0,0,0,0,0,0,0,0,0,0,0,0,0,0,0,0,0,0,0,0,0,0,0,0,0,0,0,0,0,0,0,0,0,0,0,0,0,0,0,0,0.2149,0.2149,0,0.2113,0.2112,0.2112,0.2075,0.2075,0.2074,0.2074,0.203,0.203,0.2029,0,0,0,0,0,0,0,0,0,0,0,0,0,0.22,0.2199,0.2149,0.2149,0.2149,0.2113,0.2112,0.2112,0.2075,0.2075,0.2074,0.2074,0.2031,0.203,0.2029,0,0,0,0,0,0,0,0,0,0,0,0,0,0.2171,0.2199,0.2149,0.2127,0.2125,0.2113,0.2112,0.2111,0.2075,0.2075,0.2074,0.2074,0.2031,0.203,0.2028,0.203,0,0,0.2025,0.2024,0,0,0,0,0,0,0,0,0.2172,0.2169,0.2131,0.2129,0.2126,0.2099,0.2114,0.2085,0.2075,0.2092,0.2074,0.2074,0.2054,0.2051,0.2043,0.2028,0.2027,0.2024,0.2024,0.2023,0.2023,0,0,0,0,0,0,0,0.2174,0.217,0.2133,0.2131,0.2128,0.2124,0.2119,0.2108,0.2075,0.2091,0.2089,0.2087,0.2053,0.2044,0.2042,0.2026,0.2024,0.2023,0.2023,0.2022,0.2044,0.2046,0,0,0,0,0,0,0.2182,0.2172,0.2134,0.2132,0.2151,0.2124,0.2118,0.2107,0.2075,0.2071,0.2088,0.2086,0.2047,0.2043,0.204,0.2065,0.2023,0.2022,0.2021,0.2043,0.2045,0.2046,0,0,0,0,0,0,0.2183,0.2179,0.2136,0.2153,0.2148,0.2123,0.2112,0.2107,0.21,0.2073,0.2068,0.2086,0.2046,0.2042,0.2042,0.2062,0.2021,0.202,0.2041,0.2044,0.2045,0.2099,0,0,0,0,0,0,0.2185,0.2179,0.2176,0.2153,0.2147,0.2133,0.2112,0.2107,0.21,0.2097,0.207,0.2065,0.2045,0.2044,0.204,0.2059,0.2019,0.204,0.2042,0.2045,0.2096,0.2103,0.2109,0,0,0,0,0,0.2186,0.2184,0.2176,0.2172,0.2143,0.2134,0.213,0.211,0.2101,0.2101,0.2089,0.2066,0.2058,0.2044,0.2039,0.2059,0.2038,0.2042,0.2045,0.2093,0.2101,0.2109,0,0,0,0,0,0,0.2203,0.2179,0.217,0.216,0.2151,0.2128,0.2128,0.2116,0.2105,0.2105,0.2078,0.2073,0.2083,0.2066,0.2051,0.2075,0.2047,0.2049,0.2085,0.2093,0.2099,0.2099,0.2018,0,0,0,0,0,0.2207,0.2198,0.218,0.2173,0.2171,0.2152,0.2146,0.2135,0.2123,0.2117,0.2098,0.2089,0.2093,0.2088,0.2084,0.2091,0.2085,0.2104,0.211,0.2116,0.2115,0.2144,0.2153,0.2056,0.2056,0.2056,0,0,0.2211,0.2199,0.2193,0.2177,0.2168,0.2166,0.2147,0.2144,0.2146,0.2115,0.2113,0.211,0.2102,0.2114,0.2117,0.21,0.214,0.212,0.2125,0.212,0.2148,0.2157,0.2166,0.2058,0.2058,0.2058,0,0,0.2218,0.2207,0.2203,0.2198,0.219,0.2183,0.2185,0.2167,0.2164,0.2168,0.2154,0.2164,0.2155,0.2157,0.2158,0.2199,0.2177,0.22,0.2227,0.2256,0.2264,0.2271,0.227,0.2276,0.22,0.22,0.22,0,0.2227,0.2213,0.2203,0.2202,0.22,0.2193,0.2193,0.2194,0.2179,0.219,0.2176,0.2193,0.2179,0.2208,0.2219,0.2213,0.2216,0.2196,0.2264,0.2271,0.2277,0.2274,0.2281,0.2203,0.2202,0.2202,0.2202,0,0.2226,0.2221,0.2223,0.2217,0.2218,0.222,0.2221,0.2229,0.223,0.2233,0.2263,0.2254,0.2262,0.2268,0.2251,0.2293,0.2275,0.2272,0.2242,0.229,0.2284,0.229,0.2207,0.2206,0.2205,0.2204,0,0,0.2225,0.2222,0.2221,0.222,0.2225,0.2223,0.2248,0.2265,0.2288,0.2294,0.2323,0.2335,0.2335,0.2336,0.2325,0.2345,0.2383,0.2324,0.2324,0.2319,0.2429,0.2357,0.2355,0.2396,0.2398,0.2399,0.2405,0,0.2226,0.2223,0.2226,0.2231,0.2228,0.2243,0.2265,0.2288,0.2311,0.234,0.2361,0.2383,0.2361,0.2368,0.2388,0.2387,0.2401,0.238,0.2387,0.2386,0.2313,0.2361,0.2246,0.2237,0.241,0.2411,0.2412,0,0.2216,0.2217,0.2216,0.2232,0.2235,0.2244,0.2284,0.2306,0.2362,0.2386,0.2425,0.2433,0.2462,0.2437,0.2467,0.2455,0.2442,0.244,0.2441,0.2356,0.2324,0.2219,0.224,0.2196,0.242,0.2419,0.2419,0,0.2198,0.2208,0.2206,0.2209,0.223,0.2244,0.2266,0.2319,0.2355,0.2415,0.2447,0.2487,0.2504,0.2515,0.25,0.2489,0.2528,0.2514,0.2437,0.243,0.2323,0.2305,0.2297,0.2537,0.2537,0.2537,0.2537,0,0.2184,0.2183,0.2196,0.2193,0.2211,0.2233,0.2273,0.2309,0.2376,0.2416,0.2463,0.2495,0.2527,0.2546,0.2527,0.2497,0.2552,0.2445,0.2435,0.2337,0.2321,0.2268,0.2254,0.2537,0.2537,0.2537,0.2537,0,0.2155,0.2162,0.2163,0.2186,0.2196,0.2209,0.227,0.2301,0.2372,0.2424,0.2442,0.2517,0.2534,0.255,0.2565,0.2521,0.2424,0.2478,0.2344,0.2318,0.2179,0.2172,0.2042,0.1977,0.2388,0.2386,0.2385,0,0.2136,0.2131,0.2151,0.2153,0.2161,0.2191,0.2212,0.2289,0.2325,0.2422,0.2437,0.2491,0.2504,0.2511,0.2457,0.2417,0.2358,0.2272,0.2227,0.2158,0.2145,0.2059,0.2009,0.2106,0.2102,0.2099,0.2097,0,0.2107,0.2114,0.2117,0.2121,0.2132,0.2154,0.2189,0.2221,0.23,0.234,0.239,0.2416,0.2426,0.2337,0.2291,0.2254,0.2147,0.2208,0.2185,0.196,0.1818,0.1755,0.2104,0.2071,0.2073,0.2075,0.2077,0.2078,0.2088,0.2082,0.2083,0.2079,0.2091,0.2093,0.2084,0.2125,0.2161,0.2184,0.2275,0.2263,0.2223,0.2145,0.2095,0.1946,0.196,0.1857,0.1864,0.1791,0.169,0.1964,0.1893,0.1894,0.1896,0.1897,0.1898,0,0.205,0.204,0.2038,0.202,0.1995,0.2026,0.204,0.2012,0.1994,0.205,0.2066,0.1997,0.1907,0.1865,0.1718,0.1617,0.1543,0.1572,0.1448,0.1426,0.1715,0.1667,0.1484,0.1484,0.1484,0.1484,0.1484,0.1484,0.2031,0.2001,0.1988,0.1921,0.1903,0.1842,0.1827,0.1797,0.1812,0.1756,0.1707,0.1711,0.1701,0.1579,0.1442,0.1406,0.1305,0.1207,0.1244,0.1485,0.1513,0.154,0.1492,0.1276,0.1276,0.0866,0.0863,0.0861]},{"header":{"parameterUnit":"m.s-1","parameterCategory":2,"la1":30.2991,"la2":30.254,"lo1":-89.0895,"lo2":-89.0444,"dy":0.0017,"dx":0.0017,"nx":28,"ny":28,"refTime":"2025-12-18T03:00:00:Z","depth":"0","parameterNumber":3,"parameterNumberName":"V-component_of_CURRENTS"},"data":[0,0,0,0,0,0,0,0,0,0,0,0,0,0,0,0,0,0,0,0,0,0,0,0,0,0,0,0,0,0,0,0,0,0,0,0,0,0,0,0,0,0,0,0,0,0,0,0,0,0,0,0,0,0,0,0,0,0,0.005,0.005,0,0.0045,0.0045,0.0045,0.0039,0.0039,0.0039,0.0039,0.0032,0.0032,0.0032,0,0,0,0,0,0,0,0,0,0,0,0,0,0.0027,0.0027,0.005,0.005,0.005,0.0045,0.0045,0.0045,0.0039,0.0039,0.0039,0.0039,0.0032,0.0032,0.0032,0,0,0,0,0,0,0,0,0,0,0,0,0,0.003,0.0027,0.005,0.0047,0.0047,0.0045,0.0045,0.0045,0.0039,0.0039,0.0039,0.0039,0.0032,0.0032,0.0032,0.0031,0,0,0.0031,0.0031,0,0,0,0,0,0,0,0,0.003,0.0031,0.0047,0.0047,0.0047,0.0043,0.0034,0.004,0.0039,0.0041,0.0039,0.0039,0.0036,0.0036,0.0034,0.0031,0.003,0.0031,0.0031,0.0031,0.0031,0,0,0,0,0,0,0,0.003,0.0031,0.0047,0.0047,0.0047,0.0037,0.0037,0.0035,0.0038,0.0041,0.004,0.0041,0.0036,0.0034,0.0034,0.003,0.0031,0.0031,0.0031,0.0031,0.0027,0.0027,0,0,0,0,0,0,0.0034,0.0031,0.0047,0.0047,0.0039,0.0037,0.0038,0.0044,0.0038,0.0038,0.0041,0.0041,0.0034,0.0034,0.0033,0.0043,0.0031,0.0031,0.0031,0.0027,0.0027,0.0027,0,0,0,0,0,0,0.0033,0.0035,0.0047,0.0039,0.004,0.0038,0.0044,0.0044,0.0044,0.0039,0.0038,0.0043,0.0034,0.0034,0.0036,0.0043,0.0031,0.003,0.0027,0.0027,0.0027,0.0056,0,0,0,0,0,0,0.0033,0.0035,0.0039,0.004,0.0041,0.0052,0.0044,0.0044,0.0045,0.0045,0.004,0.0039,0.0034,0.0037,0.0036,0.0042,0.003,0.0027,0.0027,0.0027,0.0055,0.0057,0.0059,0,0,0,0,0,0.0032,0.0041,0.0039,0.0041,0.0047,0.0052,0.0052,0.0049,0.0045,0.0049,0.0045,0.0039,0.0036,0.0037,0.0036,0.0042,0.0027,0.0027,0.0027,0.0054,0.0057,0.0059,0,0,0,0,0,0,0.0031,0.0041,0.004,0.005,0.0053,0.0052,0.0056,0.0052,0.0051,0.0051,0.0043,0.0042,0.0046,0.0038,0.0039,0.004,0.003,0.003,0.005,0.0052,0.0054,0.0068,0.003,0,0,0,0,0,0.0034,0.0044,0.0048,0.0056,0.0059,0.0057,0.0058,0.0057,0.0056,0.0056,0.0053,0.0048,0.0045,0.0045,0.0041,0.0044,0.0034,0.0046,0.0048,0.0049,0.0059,0.0048,0.005,0.0028,0.0028,0.0028,0,0,0.0035,0.0042,0.0047,0.0057,0.0059,0.0071,0.0058,0.0063,0.0073,0.0055,0.0066,0.0056,0.0047,0.005,0.0051,0.0046,0.0048,0.005,0.0051,0.0061,0.0048,0.005,0.0052,0.0028,0.0028,0.0028,0,0,0.0049,0.0051,0.0067,0.0073,0.008,0.0079,0.0083,0.0084,0.0085,0.0091,0.008,0.0075,0.0072,0.0067,0.0064,0.0074,0.0058,0.0069,0.0092,0.008,0.0082,0.0084,0.0065,0.0065,0.007,0.007,0.007,0,0.0051,0.0074,0.0071,0.0089,0.0099,0.0087,0.0107,0.0104,0.0106,0.0114,0.0099,0.0094,0.0082,0.0089,0.0089,0.0079,0.0068,0.0085,0.0084,0.0085,0.0086,0.0067,0.0066,0.0071,0.0071,0.0071,0.0071,0,0.0081,0.0097,0.0107,0.0128,0.0135,0.015,0.015,0.0155,0.015,0.0151,0.0155,0.0132,0.0132,0.012,0.0108,0.0111,0.0097,0.0087,0.008,0.009,0.0069,0.0068,0.0073,0.0073,0.0073,0.0072,0,0,0.0094,0.0124,0.0128,0.0148,0.016,0.0173,0.0186,0.0204,0.0225,0.0206,0.0226,0.0203,0.0188,0.0182,0.0159,0.0143,0.0131,0.0121,0.012,0.0107,0.0101,0.0092,0.0089,0.0121,0.0121,0.0121,0.008,0,0.0121,0.0166,0.017,0.021,0.0235,0.0232,0.0251,0.0262,0.0265,0.0279,0.0247,0.0253,0.0212,0.0209,0.0187,0.0152,0.0131,0.0143,0.0089,0.0088,0.0083,0.0089,0.0114,0.008,0.0078,0.0078,0.0078,0,0.0154,0.0182,0.0227,0.0266,0.0277,0.0294,0.0332,0.035,0.036,0.0363,0.0354,0.0328,0.0302,0.0261,0.0202,0.0212,0.0161,0.0123,0.0121,0.0105,0.0077,0.007,0.0078,0.0003,0.0076,0.0076,0.0076,0,0.0181,0.0223,0.0263,0.0276,0.0314,0.0333,0.0354,0.0378,0.0412,0.0416,0.0432,0.0393,0.038,0.0311,0.0224,0.0215,0.0156,0.0133,0.0074,0.0072,0.008,0.0079,0.0016,0.0089,0.0089,0.0089,0.0089,0,0.0216,0.0248,0.0279,0.0303,0.0359,0.037,0.0431,0.0445,0.0479,0.0528,0.0476,0.0496,0.0392,0.034,0.0251,0.0163,0.0173,0.0083,0.0065,0.0089,0.009,0.0014,-0.0036,0.0088,0.0088,0.0088,0.0089,0,0.0244,0.0261,0.0313,0.0357,0.0375,0.0417,0.0486,0.0535,0.0551,0.0608,0.0608,0.0581,0.0516,0.04,0.0296,0.0208,0.0075,0.0078,0.0109,0.0096,-0.0028,-0.0078,-0.0135,-0.0184,0.0011,0.001,0.001,0,0.0263,0.0292,0.0355,0.0394,0.0416,0.0479,0.053,0.0571,0.0631,0.0666,0.0701,0.0649,0.0638,0.0474,0.0311,0.0154,0.0068,0.0064,0.0049,-0.0026,-0.0095,-0.0106,-0.0145,0.0065,0.0065,0.0065,0.0065,0,0.0302,0.0322,0.0367,0.0447,0.0504,0.0579,0.0653,0.0713,0.0763,0.0809,0.086,0.0849,0.069,0.0554,0.0328,0.0217,0.0023,0.0061,-0.002,-0.0058,-0.007,-0.0128,0.0073,0.0066,0.0066,0.0066,0.0066,0.0066,0.0331,0.0369,0.0427,0.0507,0.0577,0.0671,0.0745,0.0828,0.0926,0.1002,0.0984,0.0988,0.0768,0.0477,0.0315,0.0036,0.0024,-0.0046,-0.0101,-0.0105,-0.0146,0.0054,0.0028,0.0028,0.0028,0.0027,0.0027,0,0.037,0.0414,0.0486,0.0579,0.0664,0.0693,0.0823,0.0903,0.1024,0.1084,0.1127,0.1001,0.0778,0.0496,0.0123,-0.0077,-0.0146,-0.0196,-0.0208,-0.0244,-0.0064,-0.0056,-0.0096,-0.0096,-0.0096,-0.0096,-0.0096,-0.0095,0.0389,0.046,0.0498,0.0634,0.0703,0.082,0.0899,0.1016,0.1096,0.1155,0.1133,0.1081,0.0829,0.0312,-0.0081,-0.0197,-0.0354,-0.0378,-0.0474,-0.0354,-0.0344,-0.0334,-0.0337,-0.0436,-0.0436,-0.0605,-0.0607,-0.0608]}],[{"header":{"parameterUnit":"m.s-1","parameterCategory":2,"la1":30.2991,"la2":30.254,"lo1":-89.0895,"lo2":-89.0444,"dy":0.0017,"dx":0.0017,"nx":28,"ny":28,"refTime":"2025-12-18T03:00:00:Z","depth":"2","parameterNumber":2,"parameterNumberName":"U-component_of_CURRENTS"},"data":[0,0,0,0,0,0,0,0,0,0,0,0,0,0,0,0,0,0,0,0,0,0,0,0,0,0,0,0,0,0,0,0,0,0,0,0,0,0,0,0,0,0,0,0,0,0,0,0,0,0,0,0,0,0,0,0,0,0,0.1995,0.1995,0,0.1967,0.1967,0.1966,0.1942,0.1942,0.1942,0.1942,0.1912,0.1911,0.191,0,0,0,0,0,0,0,0,0,0,0,0,0,0.2037,0.2036,0.1995,0.1995,0.1995,0.1967,0.1967,0.1966,0.1942,0.1942,0.1942,0.1942,0.1912,0.1911,0.191,0,0,0,0,0,0,0,0,0,0,0,0,0,0.2013,0.2036,0.1995,0.1981,0.1979,0.1968,0.1967,0.1966,0.1942,0.1942,0.1942,0.1942,0.1912,0.1911,0.191,0.1907,0,0,0.1907,0.1907,0,0,0,0,0,0,0,0,0.2015,0.2011,0.1983,0.1982,0.198,0.196,0.1971,0.1947,0.1942,0.1955,0.1942,0.1942,0.1929,0.1926,0.1919,0.1906,0.1904,0.1907,0.1906,0.1906,0.1906,0,0,0,0,0,0,0,0.2016,0.2013,0.1982,0.1983,0.1981,0.1979,0.1975,0.1966,0.1942,0.1954,0.1952,0.1952,0.1928,0.192,0.1918,0.1904,0.1907,0.1906,0.1905,0.1905,0.1931,0.1933,0,0,0,0,0,0,0.2023,0.2014,0.1983,0.1982,0.1999,0.1979,0.1974,0.1965,0.1942,0.1939,0.1952,0.1951,0.1922,0.1919,0.1917,0.1948,0.1906,0.1905,0.1904,0.193,0.1932,0.1933,0,0,0,0,0,0,0.2024,0.202,0.1984,0.1999,0.1995,0.1978,0.1968,0.1965,0.1964,0.1941,0.1937,0.1956,0.1922,0.1919,0.1923,0.1945,0.1904,0.1903,0.1928,0.193,0.1932,0.1987,0,0,0,0,0,0,0.2025,0.202,0.202,0.1999,0.1994,0.1984,0.1968,0.1964,0.1965,0.1963,0.1943,0.194,0.1921,0.1924,0.1922,0.1943,0.1903,0.1927,0.1929,0.1932,0.1984,0.1991,0.1997,0,0,0,0,0,0.2026,0.2025,0.202,0.2017,0.1993,0.1985,0.1982,0.1969,0.1965,0.1967,0.196,0.1941,0.1939,0.1924,0.1921,0.1943,0.1926,0.1929,0.1932,0.1981,0.1989,0.1997,0,0,0,0,0,0,0.2043,0.2022,0.2016,0.2009,0.2002,0.1982,0.1985,0.1977,0.1972,0.1975,0.1952,0.1948,0.1963,0.1947,0.1932,0.196,0.1931,0.1934,0.197,0.1978,0.1985,0.1983,0.1902,0,0,0,0,0,0.2048,0.2042,0.2025,0.2022,0.2021,0.2006,0.2003,0.1996,0.1987,0.1985,0.1971,0.1967,0.1971,0.197,0.1966,0.1976,0.1969,0.1991,0.1998,0.2003,0.2001,0.2029,0.2037,0.1943,0.1943,0.1943,0,0,0.2054,0.2043,0.2039,0.2026,0.202,0.2019,0.2004,0.2005,0.2009,0.1983,0.1989,0.1988,0.198,0.1995,0.2001,0.1984,0.2026,0.2007,0.2012,0.2006,0.2033,0.2042,0.205,0.1945,0.1945,0.1944,0,0,0.2062,0.2055,0.2052,0.2049,0.2045,0.2038,0.2043,0.203,0.2031,0.2039,0.2029,0.2043,0.2038,0.2039,0.204,0.2082,0.2062,0.2085,0.2113,0.2141,0.2148,0.2155,0.2154,0.216,0.2086,0.2087,0.2087,0,0.2073,0.2062,0.2053,0.2053,0.2054,0.205,0.2052,0.2055,0.2047,0.2059,0.2051,0.2073,0.2061,0.2089,0.2101,0.2096,0.2099,0.2082,0.2149,0.2156,0.2162,0.2159,0.2165,0.209,0.2089,0.2089,0.2089,0,0.2073,0.2072,0.2074,0.207,0.2073,0.2077,0.2079,0.209,0.2098,0.2104,0.2138,0.2132,0.2143,0.215,0.2134,0.2176,0.216,0.2156,0.2127,0.2174,0.2168,0.2174,0.2094,0.2093,0.2092,0.2091,0,0,0.2076,0.2074,0.2075,0.2075,0.2083,0.2081,0.2106,0.2125,0.2149,0.2162,0.2193,0.2209,0.2214,0.2215,0.2207,0.2226,0.2265,0.2209,0.2209,0.2203,0.231,0.2237,0.2235,0.2279,0.228,0.2281,0.2287,0,0.208,0.2078,0.2081,0.2088,0.2087,0.2102,0.2124,0.2148,0.2174,0.2205,0.2228,0.2254,0.2237,0.2248,0.2268,0.2269,0.2283,0.2262,0.2268,0.2267,0.2194,0.2241,0.2032,0.2014,0.2292,0.2292,0.2293,0,0.2073,0.2073,0.2076,0.2092,0.2095,0.2106,0.2146,0.2169,0.2224,0.2251,0.2292,0.2304,0.2334,0.2313,0.2344,0.2334,0.2323,0.2321,0.2321,0.2236,0.2204,0.2014,0.2013,0.2302,0.2301,0.23,0.23,0,0.2058,0.2069,0.207,0.2073,0.2094,0.211,0.2133,0.2185,0.2221,0.2283,0.2316,0.2357,0.2378,0.2389,0.2376,0.2368,0.2404,0.2391,0.2314,0.2307,0.2119,0.2094,0.2412,0.2412,0.2412,0.2412,0.2412,0,0.2046,0.2048,0.2064,0.2062,0.2083,0.2104,0.2147,0.2183,0.2249,0.2287,0.2335,0.2365,0.2402,0.2419,0.2401,0.2371,0.2425,0.2321,0.2311,0.2131,0.2109,0.2348,0.2341,0.2412,0.2412,0.2412,0.2412,0,0.2022,0.2031,0.2034,0.2059,0.2071,0.2087,0.2149,0.2179,0.225,0.23,0.232,0.239,0.2406,0.2421,0.2437,0.2395,0.2377,0.235,0.2123,0.2086,0.2253,0.2248,0.2265,0.2263,0.2261,0.2259,0.2257,0,0.2005,0.2003,0.2026,0.203,0.2041,0.2075,0.2097,0.2172,0.2205,0.2298,0.231,0.2362,0.2367,0.2371,0.2307,0.2264,0.2332,0.2044,0.1989,0.2253,0.2242,0.224,0.2238,0.1757,0.1752,0.1747,0.1744,0,0.1979,0.1989,0.1994,0.2002,0.2016,0.2038,0.2074,0.21,0.2176,0.2213,0.2252,0.2271,0.2267,0.2122,0.2074,0.2027,0.2036,0.1953,0.2296,0.1832,0.1776,0.1764,0.1779,0.1704,0.1708,0.1711,0.1713,0.1715,0.1963,0.1958,0.1963,0.1963,0.1978,0.1976,0.1966,0.1999,0.2026,0.2028,0.2116,0.205,0.2019,0.1838,0.1746,0.1664,0.1819,0.1706,0.1719,0.1736,0.1682,0.1626,0.1515,0.1517,0.152,0.1522,0.1524,0,0.1927,0.192,0.192,0.1904,0.188,0.1917,0.1923,0.1877,0.1847,0.1854,0.1852,0.1638,0.151,0.1483,0.1283,0.1257,0.1249,0.12,0.1157,0.1196,0.1232,0.1151,0.0843,0.0841,0.0839,0.0838,0,0,0.1908,0.1879,0.1865,0.1801,0.1791,0.1729,0.1711,0.1646,0.1614,0.1516,0.1436,0.1488,0.1467,0.1155,0.1081,0.0926,0.1072,0.0891,0.1437,0.1429,0.1463,0.1519,0.144,0,0,0,0,0]},{"header":{"parameterUnit":"m.s-1","parameterCategory":2,"la1":30.2991,"la2":30.254,"lo1":-89.0895,"lo2":-89.0444,"dy":0.0017,"dx":0.0017,"nx":28,"ny":28,"refTime":"2025-12-18T03:00:00:Z","depth":"2","parameterNumber":3,"parameterNumberName":"V-component_of_CURRENTS"},"data":[0,0,0,0,0,0,0,0,0,0,0,0,0,0,0,0,0,0,0,0,0,0,0,0,0,0,0,0,0,0,0,0,0,0,0,0,0,0,0,0,0,0,0,0,0,0,0,0,0,0,0,0,0,0,0,0,0,0,0.0192,0.0192,0,0.0188,0.0188,0.0188,0.0178,0.0178,0.0178,0.0178,0.0172,0.0172,0.0172,0,0,0,0,0,0,0,0,0,0,0,0,0,0.0167,0.0168,0.0192,0.0192,0.0192,0.0188,0.0188,0.0188,0.0178,0.0178,0.0178,0.0178,0.0172,0.0172,0.0172,0,0,0,0,0,0,0,0,0,0,0,0,0,0.0172,0.0168,0.0192,0.0187,0.0187,0.0188,0.0188,0.0188,0.0179,0.0178,0.0178,0.0178,0.0172,0.0172,0.0172,0.0176,0,0,0.0171,0.0171,0,0,0,0,0,0,0,0,0.0172,0.0173,0.0188,0.0187,0.0187,0.0184,0.0177,0.0184,0.0179,0.0181,0.0178,0.0178,0.0176,0.0176,0.0175,0.0176,0.0176,0.0171,0.0171,0.0171,0.0171,0,0,0,0,0,0,0,0.0171,0.0173,0.019,0.0188,0.0187,0.0177,0.0178,0.0178,0.018,0.0181,0.018,0.0181,0.0176,0.0175,0.0175,0.0175,0.0171,0.0171,0.0171,0.0171,0.0174,0.0174,0,0,0,0,0,0,0.0174,0.0173,0.019,0.019,0.0179,0.0178,0.0178,0.0185,0.018,0.0179,0.0181,0.018,0.0175,0.0175,0.0174,0.0183,0.0171,0.0171,0.0171,0.0173,0.0174,0.0174,0,0,0,0,0,0,0.0174,0.0176,0.019,0.0181,0.0182,0.0179,0.0186,0.0185,0.0183,0.018,0.0179,0.018,0.0175,0.0174,0.0177,0.0183,0.0171,0.0171,0.0173,0.0173,0.0174,0.0198,0,0,0,0,0,0,0.0173,0.0176,0.018,0.0182,0.0183,0.0195,0.0186,0.0185,0.0184,0.0183,0.0179,0.0178,0.0175,0.0178,0.0177,0.0182,0.0171,0.0173,0.0173,0.0174,0.0197,0.0199,0.0201,0,0,0,0,0,0.0173,0.0182,0.018,0.0182,0.0189,0.0195,0.0195,0.0191,0.0184,0.0187,0.0184,0.0178,0.0178,0.0178,0.0178,0.0183,0.0173,0.0173,0.0174,0.0196,0.0199,0.0201,0,0,0,0,0,0,0.0171,0.0182,0.018,0.0191,0.0193,0.0194,0.0196,0.0191,0.0191,0.0188,0.0182,0.0182,0.0186,0.018,0.018,0.0182,0.0173,0.0173,0.0191,0.0193,0.0194,0.0207,0.0171,0,0,0,0,0,0.0173,0.0184,0.0188,0.0197,0.0199,0.0197,0.0197,0.0195,0.0195,0.0194,0.0191,0.0187,0.0186,0.0186,0.0185,0.0189,0.0179,0.019,0.0192,0.0193,0.0202,0.0191,0.0193,0.0174,0.0174,0.0174,0,0,0.0174,0.0181,0.0187,0.0197,0.0198,0.0211,0.0197,0.0201,0.021,0.0194,0.0204,0.0194,0.0189,0.0193,0.0194,0.019,0.019,0.0193,0.0195,0.0203,0.0191,0.0193,0.0195,0.0174,0.0174,0.0174,0,0,0.0187,0.0189,0.0205,0.0211,0.0216,0.0217,0.0219,0.0221,0.022,0.0227,0.0216,0.0211,0.0211,0.0209,0.0207,0.0217,0.02,0.0211,0.0232,0.022,0.0222,0.0223,0.0203,0.0202,0.0212,0.0212,0.0212,0,0.0187,0.021,0.0209,0.0226,0.0236,0.0223,0.0243,0.0241,0.0242,0.025,0.0234,0.0232,0.0221,0.0231,0.023,0.0223,0.0209,0.0225,0.0223,0.0224,0.0225,0.0204,0.0203,0.0213,0.0213,0.0213,0.0213,0,0.0216,0.0232,0.0242,0.0264,0.0271,0.0285,0.0286,0.0291,0.0284,0.0285,0.0289,0.0269,0.0269,0.0258,0.0247,0.025,0.0234,0.0227,0.022,0.0229,0.0205,0.0204,0.0215,0.0215,0.0214,0.0214,0,0,0.0227,0.0258,0.0262,0.0282,0.0294,0.0307,0.0322,0.034,0.036,0.034,0.036,0.0339,0.0322,0.0318,0.0295,0.028,0.0264,0.0256,0.0255,0.0239,0.0231,0.0218,0.0215,0.0255,0.0255,0.0255,0.0208,0,0.0252,0.0296,0.0303,0.0342,0.0367,0.0365,0.0386,0.0397,0.0399,0.0413,0.0382,0.0387,0.0346,0.0342,0.032,0.0285,0.0263,0.0277,0.0222,0.0221,0.0211,0.0214,0.024,0.0201,0.0207,0.0206,0.0206,0,0.0283,0.0312,0.0356,0.0397,0.0408,0.0425,0.0463,0.0482,0.0492,0.0494,0.0483,0.0457,0.0431,0.039,0.033,0.034,0.0288,0.0252,0.0249,0.0231,0.0206,0.0194,0.0198,0.0204,0.0204,0.0204,0.0204,0,0.0306,0.035,0.0389,0.0402,0.0443,0.0462,0.0483,0.0507,0.0541,0.0543,0.0556,0.0518,0.0503,0.0434,0.0347,0.0339,0.0277,0.0258,0.0195,0.0193,0.0203,0.0202,0.0213,0.0213,0.0214,0.0214,0.0214,0,0.0338,0.0369,0.0402,0.0427,0.0481,0.0494,0.0554,0.0569,0.0602,0.0649,0.0597,0.0615,0.0513,0.046,0.0371,0.0281,0.0293,0.0203,0.0185,0.021,0.021,0.0206,0.0206,0.0212,0.0212,0.0213,0.0213,0,0.0362,0.038,0.0432,0.0478,0.0495,0.0536,0.0606,0.0654,0.0668,0.0723,0.0722,0.0693,0.0624,0.0512,0.0407,0.0322,0.023,0.0192,0.0222,0.0209,0.0144,0.0146,0.012,0.012,0.0119,0.0118,0.0118,0,0.0379,0.0407,0.047,0.0508,0.053,0.0593,0.0645,0.0686,0.0745,0.0777,0.081,0.0753,0.0735,0.057,0.0413,0.0256,0.0228,0.0168,0.0158,0.0152,0.0137,0.0139,0.0142,0.0173,0.0173,0.0173,0.0173,0,0.0416,0.0434,0.0479,0.0556,0.0613,0.069,0.0763,0.0821,0.0872,0.0911,0.0952,0.0934,0.0776,0.0636,0.0414,0.0309,0.0195,0.0164,0.0159,0.0194,0.0198,0.0184,0.0185,0.0173,0.0173,0.0173,0.0173,0.0173,0.0442,0.0479,0.0536,0.0613,0.0682,0.0776,0.0849,0.0928,0.1019,0.1074,0.1056,0.1019,0.0854,0.0576,0.0402,0.0203,0.0205,0.0132,0.0134,0.0135,0.0151,0.0154,0.0123,0.0123,0.0122,0.0122,0.0122,0,0.0479,0.0521,0.0591,0.0682,0.0765,0.0794,0.0923,0.0995,0.1101,0.1125,0.1148,0.0983,0.0824,0.0615,0.0332,0.0172,0.0164,0.0113,0.0142,0.0143,0.0144,0.0161,0.0136,0.0135,0.0135,0.0134,0,0,0.0498,0.0566,0.0603,0.0735,0.08,0.0914,0.0991,0.109,0.114,0.1175,0.1139,0.1091,0.0857,0.0655,0.0446,0.0286,0.0248,0.0253,0.026,0.0322,0.0324,0.0175,0.0205,0,0,0,0,0]}],[{"header":{"parameterUnit":"m.s-1","parameterCategory":2,"la1":30.2991,"la2":30.254,"lo1":-89.0895,"lo2":-89.0444,"dy":0.0017,"dx":0.0017,"nx":28,"ny":28,"refTime":"2025-12-18T03:00:00:Z","depth":"4","parameterNumber":2,"parameterNumberName":"U-component_of_CURRENTS"},"data":[0,0,0,0,0,0,0,0,0,0,0,0,0,0,0,0,0,0,0,0,0,0,0,0,0,0,0,0,0,0,0,0,0,0,0,0,0,0,0,0,0,0,0,0,0,0,0,0,0,0,0,0,0,0,0,0,0,0,0.1154,0.1154,0,0.1168,0.1168,0.1168,0.1194,0.1194,0.1195,0.1196,0.1221,0.1221,0.1222,0,0,0,0,0,0,0,0,0,0,0,0,0,0.115,0.1149,0.1154,0.1154,0.1154,0.1168,0.1168,0.1168,0.1194,0.1194,0.1195,0.1196,0.1221,0.1221,0.1222,0,0,0,0,0,0,0,0,0,0,0,0,0,0.1155,0.1149,0.1154,0.117,0.1172,0.1168,0.1168,0.1168,0.1193,0.1194,0.1195,0.1196,0.1221,0.1221,0.1222,0.1204,0,0,0.1222,0.1222,0,0,0,0,0,0,0,0,0.1155,0.1155,0.1167,0.1169,0.1171,0.1182,0.1176,0.1181,0.1193,0.1183,0.1196,0.1197,0.1209,0.1211,0.1209,0.1205,0.1206,0.1222,0.1222,0.1222,0.1222,0,0,0,0,0,0,0,0.1154,0.1154,0.1158,0.1168,0.117,0.1177,0.1179,0.1177,0.119,0.1184,0.1187,0.1191,0.121,0.1209,0.121,0.1206,0.1222,0.1222,0.1222,0.1222,0.1276,0.1277,0,0,0,0,0,0,0.1154,0.1154,0.1158,0.1159,0.1167,0.1177,0.1178,0.1176,0.119,0.1193,0.119,0.1192,0.1208,0.1209,0.1211,0.1265,0.1222,0.1222,0.1222,0.1274,0.1276,0.1277,0,0,0,0,0,0,0.1154,0.1154,0.1157,0.1158,0.116,0.1176,0.1173,0.1176,0.1202,0.1194,0.1198,0.1216,0.1209,0.1211,0.1236,0.1263,0.1222,0.1223,0.1273,0.1275,0.1277,0.1326,0,0,0,0,0,0,0.1154,0.1154,0.1166,0.1158,0.1159,0.1172,0.1172,0.1175,0.1201,0.1205,0.1217,0.1219,0.121,0.1236,0.1236,0.1263,0.1223,0.1271,0.1274,0.1276,0.1323,0.1329,0.1335,0,0,0,0,0,0.1153,0.116,0.1167,0.1168,0.1171,0.1173,0.1174,0.1188,0.1202,0.1215,0.1229,0.122,0.1252,0.1237,0.1237,0.1264,0.127,0.1273,0.1276,0.132,0.1328,0.1335,0,0,0,0,0,0,0.1168,0.1164,0.117,0.1177,0.1184,0.1178,0.1196,0.1203,0.1223,0.1238,0.1231,0.1234,0.1268,0.126,0.1243,0.1289,0.1262,0.1265,0.1295,0.1303,0.1309,0.131,0.1223,0,0,0,0,0,0.1175,0.1182,0.1179,0.119,0.1196,0.1202,0.1212,0.122,0.123,0.1241,0.125,0.1263,0.1274,0.1285,0.1291,0.1311,0.1308,0.1332,0.1338,0.1343,0.1345,0.1373,0.1381,0.1287,0.1287,0.1287,0,0,0.1185,0.1185,0.119,0.1194,0.1204,0.1212,0.1211,0.1233,0.1248,0.124,0.1276,0.1286,0.1285,0.1312,0.1326,0.1312,0.1369,0.1347,0.1351,0.135,0.1377,0.1386,0.1394,0.1289,0.1289,0.1288,0,0,0.1197,0.1209,0.1216,0.1223,0.1241,0.1242,0.1255,0.1266,0.1284,0.1312,0.1315,0.1343,0.1359,0.1363,0.1366,0.141,0.1401,0.142,0.1451,0.1478,0.1486,0.1493,0.1499,0.1506,0.1422,0.1422,0.1423,0,0.1215,0.1216,0.1222,0.123,0.1241,0.1258,0.127,0.1286,0.1308,0.1329,0.1336,0.1382,0.1381,0.141,0.1426,0.1424,0.1433,0.1421,0.1486,0.1493,0.1499,0.1503,0.151,0.1425,0.1425,0.1425,0.1424,0,0.122,0.1235,0.1244,0.1257,0.127,0.1287,0.1302,0.1333,0.1363,0.1379,0.1431,0.1438,0.1465,0.1473,0.1462,0.1508,0.1498,0.1491,0.1465,0.1511,0.1513,0.1519,0.1429,0.1428,0.1427,0.1427,0,0,0.1222,0.1242,0.125,0.1261,0.1288,0.1294,0.1333,0.1365,0.1401,0.1439,0.1482,0.151,0.1531,0.1535,0.1535,0.1556,0.1602,0.1547,0.1547,0.1549,0.1657,0.1528,0.1522,0.1614,0.1615,0.1617,0.1639,0,0.1229,0.1245,0.1256,0.1284,0.1292,0.1323,0.1354,0.1392,0.1434,0.1482,0.1513,0.1556,0.1549,0.1574,0.1597,0.1603,0.1623,0.1596,0.1614,0.1614,0.1491,0.1526,0.1621,0.1643,0.1645,0.1646,0.1647,0,0.1223,0.1236,0.126,0.1293,0.1303,0.1329,0.1389,0.1421,0.1489,0.1527,0.1583,0.1608,0.1651,0.1638,0.1682,0.167,0.167,0.167,0.1671,0.1536,0.1497,0.1589,0.1658,0.1657,0.1656,0.1655,0.1655,0,0.1202,0.1236,0.1257,0.1268,0.1311,0.1344,0.1379,0.1446,0.1484,0.1568,0.1608,0.1663,0.17,0.172,0.1723,0.1715,0.1758,0.1744,0.1626,0.1616,0.1704,0.1697,0.1774,0.1774,0.1774,0.1774,0.1774,0,0.1183,0.1204,0.1257,0.1266,0.1308,0.1345,0.1405,0.1453,0.1527,0.157,0.1637,0.1669,0.1727,0.1752,0.1746,0.1699,0.178,0.1631,0.1615,0.1724,0.1718,0.1708,0.17,0.1775,0.1774,0.1774,0.1774,0,0.1147,0.1182,0.1212,0.1272,0.1297,0.1332,0.1415,0.1448,0.1534,0.1591,0.1621,0.1696,0.1721,0.175,0.1777,0.1713,0.169,0.1654,0.1764,0.1754,0.1525,0.1519,0.152,0.1515,0.1512,0.1509,0.1506,0,0.1124,0.1137,0.1212,0.1234,0.1268,0.1328,0.1361,0.1448,0.1479,0.1585,0.1595,0.166,0.1691,0.1626,0.1667,0.164,0.1616,0.1591,0.1555,0.1515,0.15,0.1501,0.15,0.15,0.1499,0.1498,0.1497,0,0.1081,0.1125,0.1151,0.1199,0.1241,0.1274,0.133,0.1344,0.1432,0.1523,0.1527,0.1527,0.1545,0.1546,0.1536,0.1516,0.1599,0.1552,0.1559,0.1526,0.1491,0.1481,0.1485,0.1485,0.1486,0.1488,0.1488,0,0.106,0.1068,0.1112,0.1142,0.1192,0.1194,0.1233,0.1253,0.1294,0.1403,0.1401,0.1461,0.1535,0.1481,0.1474,0.144,0.1409,0.135,0.1368,0.1382,0.1322,0.1258,0.1165,0,0,0,0,0,0.1025,0.1019,0.1043,0.1061,0.1106,0.1132,0.1193,0.1231,0.1317,0.1282,0.1337,0.1342,0.1323,0.1356,0.1289,0.14,0.1414,0.1315,0.1356,0.1414,0.1429,0.1368,0,0,0,0,0,0,0.0997,0.102,0.1015,0.0988,0.0985,0.1015,0.105,0.1106,0.109,0.1187,0.1186,0.1254,0.126,0.1348,0.1265,0.127,0.1263,0.1356,0.1351,0.1406,0.1419,0.1431,0.1374,0,0,0,0,0]},{"header":{"parameterUnit":"m.s-1","parameterCategory":2,"la1":30.2991,"la2":30.254,"lo1":-89.0895,"lo2":-89.0444,"dy":0.0017,"dx":0.0017,"nx":28,"ny":28,"refTime":"2025-12-18T03:00:00:Z","depth":"4","parameterNumber":3,"parameterNumberName":"V-component_of_CURRENTS"},"data":[0,0,0,0,0,0,0,0,0,0,0,0,0,0,0,0,0,0,0,0,0,0,0,0,0,0,0,0,0,0,0,0,0,0,0,0,0,0,0,0,0,0,0,0,0,0,0,0,0,0,0,0,0,0,0,0,0,0,0.0279,0.0279,0,0.0287,0.0287,0.0287,0.0293,0.0293,0.0293,0.0293,0.0311,0.0312,0.0312,0,0,0,0,0,0,0,0,0,0,0,0,0,0.025,0.0251,0.0279,0.0279,0.0279,0.0287,0.0287,0.0287,0.0293,0.0293,0.0293,0.0293,0.0311,0.0312,0.0312,0,0,0,0,0,0,0,0,0,0,0,0,0,0.0261,0.0251,0.0279,0.0283,0.0283,0.0287,0.0287,0.0287,0.0293,0.0293,0.0293,0.0293,0.0311,0.0312,0.0312,0.0316,0,0,0.0314,0.0315,0,0,0,0,0,0,0,0,0.026,0.0262,0.0282,0.0282,0.0283,0.0289,0.0284,0.0297,0.0293,0.0289,0.0293,0.0293,0.0305,0.0306,0.0307,0.0317,0.0317,0.0315,0.0315,0.0315,0.0315,0,0,0,0,0,0,0,0.026,0.0262,0.0282,0.0282,0.0283,0.0278,0.028,0.0286,0.0297,0.029,0.029,0.0291,0.0305,0.0307,0.0308,0.0318,0.0315,0.0315,0.0316,0.0316,0.0339,0.0339,0,0,0,0,0,0,0.0259,0.0261,0.0282,0.0283,0.0271,0.0278,0.028,0.0287,0.0297,0.0298,0.0291,0.0291,0.0305,0.0307,0.0309,0.0329,0.0315,0.0316,0.0316,0.0339,0.0339,0.0339,0,0,0,0,0,0,0.0259,0.0261,0.0282,0.0271,0.0274,0.0279,0.0286,0.0287,0.0293,0.0297,0.0299,0.0296,0.0306,0.0308,0.0321,0.0329,0.0316,0.0317,0.0339,0.0339,0.0339,0.0359,0,0,0,0,0,0,0.0258,0.0261,0.0268,0.0272,0.0274,0.0289,0.0286,0.0287,0.0293,0.0294,0.0302,0.0304,0.0306,0.032,0.0321,0.033,0.0317,0.0338,0.0339,0.0339,0.0358,0.036,0.0361,0,0,0,0,0,0.0257,0.0267,0.0268,0.0271,0.0283,0.0289,0.029,0.0294,0.0293,0.0299,0.0305,0.0304,0.0323,0.0321,0.0323,0.0331,0.0338,0.0339,0.0339,0.0357,0.036,0.0361,0,0,0,0,0,0,0.0256,0.0268,0.027,0.0282,0.0287,0.029,0.0296,0.0296,0.0305,0.0307,0.031,0.0312,0.0325,0.0324,0.0322,0.0338,0.0329,0.033,0.0342,0.0344,0.0346,0.0351,0.0318,0,0,0,0,0,0.0259,0.0272,0.0277,0.0287,0.0291,0.0294,0.0297,0.0299,0.0305,0.0309,0.0315,0.0321,0.0328,0.0333,0.0339,0.035,0.0337,0.0355,0.0357,0.0358,0.0363,0.0349,0.035,0.0341,0.0341,0.0341,0,0,0.0262,0.027,0.0277,0.0288,0.0293,0.0304,0.0296,0.0304,0.0316,0.031,0.0329,0.0329,0.0332,0.0345,0.035,0.0346,0.0352,0.0359,0.036,0.0364,0.035,0.0351,0.0351,0.0341,0.0341,0.0341,0,0,0.0273,0.0281,0.0295,0.0301,0.031,0.0313,0.0316,0.0323,0.0328,0.0342,0.034,0.0345,0.0358,0.036,0.0363,0.0377,0.0362,0.0377,0.0392,0.0379,0.0379,0.038,0.0357,0.0355,0.0378,0.0378,0.0378,0,0.0275,0.0297,0.0299,0.0313,0.0324,0.0319,0.0336,0.034,0.035,0.0359,0.0352,0.0366,0.0366,0.038,0.0384,0.0381,0.0367,0.0385,0.0381,0.0381,0.0381,0.0357,0.0355,0.0379,0.0379,0.0379,0.0379,0,0.0298,0.0316,0.0324,0.0345,0.0354,0.0367,0.0373,0.0383,0.0386,0.039,0.0403,0.0396,0.0405,0.0401,0.0399,0.0402,0.0389,0.0384,0.0376,0.0383,0.0358,0.0355,0.0381,0.038,0.038,0.038,0,0,0.0304,0.0335,0.0339,0.0358,0.0374,0.0386,0.0404,0.0422,0.0441,0.0436,0.0454,0.0453,0.0444,0.0445,0.0434,0.042,0.0403,0.0405,0.0403,0.0382,0.0365,0.0343,0.0338,0.0397,0.0397,0.0397,0.0343,0,0.0324,0.036,0.037,0.0407,0.0427,0.0433,0.0455,0.0469,0.0476,0.049,0.0473,0.0486,0.0462,0.0465,0.0446,0.042,0.0399,0.0418,0.0361,0.0359,0.0339,0.0335,0.0397,0.0341,0.0341,0.034,0.034,0,0.0344,0.0369,0.0409,0.0449,0.046,0.048,0.0517,0.0537,0.0549,0.0554,0.0551,0.0535,0.0518,0.0493,0.0441,0.0455,0.0412,0.0382,0.0379,0.0352,0.0333,0.0334,0.0335,0.0335,0.0335,0.0336,0.0336,0,0.0355,0.0397,0.0433,0.0446,0.0488,0.051,0.0534,0.0559,0.0588,0.0594,0.0606,0.0578,0.0569,0.0513,0.0446,0.0445,0.0379,0.037,0.0306,0.0303,0.033,0.0331,0.0326,0.0326,0.0327,0.0327,0.0327,0,0.0373,0.0404,0.0444,0.0465,0.0517,0.0535,0.0591,0.0607,0.0638,0.0671,0.064,0.0645,0.0574,0.0525,0.0456,0.0372,0.0384,0.0307,0.029,0.0338,0.034,0.0328,0.0329,0.0325,0.0325,0.0326,0.0326,0,0.0382,0.0406,0.0453,0.0504,0.0525,0.0563,0.0634,0.0673,0.0692,0.0729,0.0731,0.0701,0.0636,0.055,0.0459,0.0392,0.031,0.0274,0.0327,0.0314,0.0239,0.0241,0.0199,0.0198,0.0197,0.0196,0.0195,0,0.039,0.0414,0.0481,0.0517,0.0545,0.0607,0.0655,0.0699,0.0739,0.076,0.0775,0.0724,0.0687,0.0537,0.0448,0.0307,0.0284,0.0234,0.0239,0.0239,0.0226,0.0231,0.0234,0.0194,0.0193,0.0193,0.0193,0,0.0406,0.0431,0.0472,0.0544,0.06,0.0668,0.0733,0.0764,0.0808,0.0821,0.0801,0.0723,0.0646,0.0532,0.0421,0.0321,0.0264,0.0223,0.0224,0.0228,0.0232,0.0221,0.0226,0.0189,0.019,0.019,0.019,0,0.042,0.045,0.0504,0.0569,0.064,0.0706,0.0743,0.0783,0.082,0.0831,0.0822,0.0735,0.0692,0.054,0.044,0.0336,0.0309,0.0266,0.0265,0.0267,0.0302,0.0317,0.0286,0,0,0,0,0,0.0432,0.0467,0.0526,0.0597,0.0667,0.071,0.0786,0.0817,0.0849,0.0834,0.0828,0.0751,0.06,0.0544,0.0435,0.0422,0.0293,0.029,0.0244,0.017,0.0174,0.0201,0,0,0,0,0,0,0.044,0.0494,0.0523,0.0608,0.0657,0.0738,0.0787,0.0811,0.0806,0.0814,0.074,0.0705,0.0566,0.0653,0.0424,0.0396,0.0348,0.0226,0.0223,0.0168,0.0171,0.0175,0.0203,0,0,0,0,0]}]]